Regional Weather Roundup
Issued by NWS Lake Charles, LA

Home | Current Version | Previous Version | Text Only | Print | Product List | Glossary On
Versions: 1 2 3 4 5 6 7 8 9 10 11 12 13 14 15 16 17 18 19 20 21 22 23 24 25 26 27 28 29 30 31 32 33 34 35 36 37 38 39 40 41 42 43 44 45 46 47 48 49
000
ASUS44 KLCH 221210
RWRLCH
RWRLCH
REGIONAL WEATHER ROUNDUP
NATIONAL WEATHER SERVICE LAKE CHARLES LA
600 AM CST MON DEC 22 2014

Note: "fair" indicates few or no clouds below 12,000 feet with no
significant weather and/or obstructions to visibility.


ACROSS SOUTHEAST TEXAS

CITY           SKY/WX    TMP DP  RH WIND       PRES   REMARKS
BEAUMONT       CLOUDY    58  56  93 SE8       29.78S FOG
BEAUMONT CITY  CLOUDY    56  56  99 SE7       29.78S FOG
ORANGE         FOG       55  55 100 E5        29.80F VSB 1/2
JASPER         FOG       51  51  99 SE5       29.80S VSB 3/4
$$

ACROSS CENTRAL LOUISIANA

CITY           SKY/WX    TMP DP  RH WIND       PRES   REMARKS
LEESVILLE      FOG       51  50  98 S8        29.79F VSB 1/2
FULLERTON      FOG       53  50  89 VRB3      29.78S VSB 3/4
ALEXANDRIA INT FOG       51  51 100 SE6       29.80S VSB 1/2
ESLER FIELD    CLOUDY    50  50 100 S5        29.81F
DERIDDER       FOG       51  50  95 SE3       29.81F VSB 1/2
OAKDALE        FOG       52  51  96 SE5       29.81F VSB 1/2
OPELOUSAS      CLOUDY    51  51  99 CALM      29.81F FOG
$$

ACROSS SOUTHWEST AND SOUTH CENTRAL LOUISIANA

CITY           SKY/WX    TMP DP  RH WIND       PRES   REMARKS
SULPHUR        FOG       55  55 100 E6        29.80S VSB 1/2
LAKE CHARLES   FOG       53  53 100 SE7       29.79F VSB 1/2
CHENNAULT INT  CLOUDY    54  54 100 E6        29.90  FOG
CAMERON PHI    CLOUDY    57  57 100 SE10      29.82S FOG
DEQUINCY       FOG       52  52 100 SE3       29.79F VSB 1/2
JENNINGS       CLOUDY    52  52  99 SE7       29.81S FOG
LAFAYETTE      FOG       52  51  97 VRB3      29.83F VSB 1/2
NEW IBERIA     FOG       54  53  97 E3        29.84S VSB 1/2
ABBEVILLE      FOG       52  52 100 CALM      29.83F VSB 1/4
PATTERSON      CLOUDY    55  54  94 CALM      29.85S
SALT POINT       N/A     59  56  89 CALM      29.83R
$$

SELECTED SITES ACROSS THE REGION

CITY           SKY/WX    TMP DP  RH WIND       PRES   REMARKS
HOUSTON BUSH   MOCLDY    56  55  97 SE3       29.76S FOG
HOUSTON HOBBY  FOG       54  54 100 CALM      29.76S VSB 1/4
GALVESTON      PTCLDY    62  61  96 SE10      29.77F
COLLEGE STAT   CLOUDY    58  57  97 S10       29.72F
CONROE         CLOUDY    58  56  93 S9        29.76F FOG
HUNTSVILLE     CLOUDY    59  57  93 S14       29.72F
LUFKIN         CLOUDY    56  53  90 SE9       29.74F FOG
SHREVEPORT     CLOUDY    51  49  92 S10       29.73F
MONROE         FOG       49  49 100 S7        29.82F VSB 1/2
NATCHEZ MS     CLOUDY    54  52  94 S9        29.83F
BATON ROUGE    FOG       54  53  97 CALM      29.85S VSB 1/4
N.O. INTL ARPT MOCLDY    58  56  93 E3        29.85F FOG
SLIDELL        CLOUDY    58  56  93 CALM      29.86R FOG
$$

MARINE REPORTS

STATION/POSITION TIME  TEMP    WIND        PRES    VSBY  WAVE
                       AIR SEA DIR/SP/G                  HT/PER
                 (UTC) (F)     (DEG/KT/KT) (MB)    (MI)  (FT/S)
BUOY 30 S HIGH I 1200   64 64  130/  8/  8 1008.0F         2/ 4
SEA RIM ST PARK  1200   60     120/  7/  8 1009.1F
PORT ARTHUR      1200      59  120/  3/  6 1008.7R
SABINE PASS N    1200   59 60  120/  9/ 10 1008.2F
TEXAS POINT      NOT AVBL
CALCASIEU PASS   1200   57 59  120/ 11/ 14   N/A
LK CHARLES BEACH 1200   53 59              1009.0S
MARSH ISLAND     NOT AVBL
FRESH WATER LOCK 1200   56 58   70/  6/  8 1009.9F
AMERADA PASS     1200   56 50   60/  3/  5 1010.2R
$$



USA.gov is the U.S. government's official web portal to all federal, state and local government web resources and services.